Temperature
4 4 4 4 5 5 5 5 5 5 5 5 5 6 6 6 6 6 6 6 6 6 6 6 6 6 5 5 5 5 5 5 5 5 5 5 5 5 5 5 5 5 5
3 3 3 4 4 4 4 4 4 4 5 5 5 5 5 5 5 5 5 5 5 5 5 5 5 5 5 5 5 5 5 5 5 4 5 5 5 4 4 4 4 4 4
2 2 3 3 3 3 4 4 4 4 4 4 4 4 4 5 5 5 5 5 5 5 5 5 5 5 5 5 5 5 4 4 4 4 4 4 4 4 4 4 4 3 3
2 2 2 2 3 3 3 3 3 3 3 3 3 3 4 4 4 4 4 4 4 4 4 4 4 4 4 4 4 4 4 4 4 4 4 4 3 3 3 3 3 3 3
1 2 2 2 2 2 2 2 2 3 3 3 3 3 3 3 3 4 4 4 4 4 4 4 4 4 4 4 4 4 3 3 3 3 3 3 3 3 3 3 2 2 2
1 1 1 1 1 1 2 2 2 2 2 2 2 2 3 3 3 3 3 3 3 3 3 3 4 4 4 3 3 3 3 3 3 3 3 3 3 3 2 2 2 2 2
0 0 1 1 1 1 1 1 1 1 1 1 2 2 2 2 2 2 2 3 3 3 3 3 3 3 3 3 3 3 3 3 3 3 3 3 2 2 2 2 2 2 1
-0 -0 -0 -0 -0 0 0 0 0 1 1 1 1 1 1 2 2 2 2 2 2 2 2 2 2 3 3 2 2 2 2 2 2 2 2 2 2 2 2 1 1 1 1
-1 -1 -1 -1 -1 -1 -1 -0 -0 -0 0 0 1 1 1 1 1 1 1 1 1 2 2 2 2 2 2 2 2 2 2 2 2 2 2 2 1 1 1 1 1 0 0
-2 -2 -2 -2 -2 -1 -1 -1 -1 -1 -1 -0 -0 0 0 0 1 0 0 1 1 1 1 1 1 1 1 1 1 1 1 1 1 1 1 1 1 1 1 0 0 -0 -0
-2 -2 -2 -2 -2 -2 -2 -1 -1 -1 -1 -1 -1 -1 -0 -0 -0 0 0 0 0 0 0 0 1 1 1 1 1 1 1 1 1 1 1 1 0 0 -0 -0 -0 -0 -1
-3 -3 -2 -2 -2 -2 -2 -2 -2 -2 -2 -2 -2 -1 -1 -1 -1 -0 -0 -0 -0 -0 -0 -0 -0 0 0 0 0 0 0 -0 -0 -0 -0 -0 -0 -0 -1 -1 -1 -1 -1
-3 -3 -3 -3 -3 -2 -2 -2 -2 -2 -2 -2 -2 -2 -2 -1 -1 -1 -1 -1 -1 -1 -1 -1 -1 -1 -0 -0 -0 -0 -0 -0 -1 -1 -1 -1 -1 -1 -1 -1 -1 -1 -1
-3 -3 -3 -3 -3 -3 -3 -3 -3 -3 -3 -3 -3 -2 -2 -2 -2 -2 -2 -2 -1 -1 -1 -1 -1 -1 -1 -1 -1 -1 -1 -1 -1 -1 -1 -1 -1 -1 -1 -2 -2 -2 -2
-4 -4 -3 -3 -3 -3 -3 -3 -3 -3 -3 -3 -3 -3 -3 -3 -3 -2 -2 -2 -2 -2 -2 -2 -2 -2 -2 -2 -2 -1 -1 -1 -1 -1 -2 -2 -2 -2 -2 -2 -2 -2 -2
-4 -4 -4 -4 -4 -4 -3 -3 -3 -3 -3 -3 -3 -3 -3 -3 -3 -3 -3 -2 -2 -2 -2 -2 -2 -2 -2 -2 -2 -2 -2 -2 -2 -2 -2 -2 -3 -3 -3 -3 -3 -3 -3
-4 -4 -4 -4 -4 -4 -4 -4 -4 -3 -3 -3 -3 -3 -3 -3 -3 -3 -3 -3 -3 -3 -3 -3 -3 -3 -3 -3 -2 -3 -3 -3 -3 -3 -3 -3 -3 -3 -3 -3 -3 -3 -3
-4 -4 -4 -4 -4 -4 -4 -4 -4 -4 -4 -3 -3 -4 -4 -4 -3 -3 -3 -3 -3 -3 -3 -3 -3 -3 -3 -3 -3 -3 -3 -3 -3 -3 -3 -4 -3 -3 -3 -3 -3 -3 -4
-5 -5 -5 -5 -5 -5 -5 -4 -4 -4 -4 -4 -4 -4 -4 -4 -4 -4 -4 -4 -4 -4 -4 -4 -4 -4 -3 -3 -3 -3 -3 -3 -4 -4 -4 -4 -4 -4 -4 -4 -4 -4 -4
-5 -5 -5 -5 -5 -5 -5 -5 -5 -5 -5 -4 -4 -4 -4 -4 -4 -4 -4 -4 -4 -4 -4 -4 -4 -4 -4 -4 -4 -4 -4 -4 -4 -4 -4 -4 -4 -4 -4 -4 -4 -4 -4
-5 -5 -5 -5 -5 -5 -5 -5 -5 -5 -5 -5 -5 -5 -5 -5 -5 -5 -5 -5 -5 -5 -4 -4 -4 -4 -4 -4 -4 -4 -4 -4 -4 -4 -4 -4 -4 -4 -4 -4 -4 -4 -5
-6 -5 -5 -5 -5 -5 -5 -5 -5 -5 -5 -5 -5 -5 -5 -5 -5 -5 -5 -5 -5 -5 -5 -4 -4 -4 -4 -4 -4 -4 -4 -5 -4 -5 -4 -4 -4 -4 -4 -4 -5 -5 -5
-6 -6 -6 -6 -6 -6 -6 -6 -5 -5 -5 -5 -5 -5 -6 -5 -5 -5 -5 -5 -5 -5 -5 -5 -5 -4 -4 -5 -5 -5 -5 -5 -5 -5 -5 -4 -4 -4 -5 -5 -5 -5 -5
-6 -6 -6 -6 -6 -6 -6 -6 -6 -6 -6 -6 -6 -6 -6 -6 -6 -6 -6 -5 -5 -5 -5 -5 -5 -5 -5 -5 -5 -5 -5 -5 -5 -5 -5 -5 -5 -5 -5 -5 -5 -5 -5
-7 -7 -7 -7 -7 -6 -6 -6 -6 -6 -6 -6 -6 -6 -6 -6 -6 -6 -6 -6 -5 -5 -5 -5 -5 -5 -5 -5 -5 -5 -5 -5 -5 -5 -5 -5 -5 -5 -5 -5 -5 -5 -5
-7 -7 -7 -7 -7 -7 -7 -7 -6 -6 -6 -6 -6 -6 -6 -6 -6 -6 -6 -6 -6 -5 -5 -5 -5 -5 -5 -5 -5 -5 -5 -5 -5 -5 -5 -5 -5 -5 -5 -6 -6 -6 -6
Wind_Speed
3 3 3 3 4 3 3 4 4 4 4 4 5 6 6 6 6 6 6 6 8 7 7 8 8 6 5 5 4 4 4 4 6 4 3 2 2 3 4 5 6 7 8
3 3 3 3 3 2 3 3 3 3 3 4 4 5 5 6 6 7 7 7 8 9 8 8 8 6 7 6 5 5 5 5 5 5 4 3 3 3 3 3 4 5 6
3 3 3 3 2 2 2 2 3 3 3 3 3 4 5 6 6 7 8 8 8 9 9 9 8 8 8 6 6 6 5 5 4 4 4 2 2 2 2 3 3 3 5
2 2 2 2 2 2 2 2 2 2 3 3 3 4 5 5 6 6 7 8 8 8 8 8 9 9 9 8 7 7 6 5 4 4 4 3 2 2 1 2 3 3 3
1 1 2 2 2 1 2 1 1 1 2 2 2 3 4 4 5 5 6 7 8 8 7 7 8 10 10 9 7 7 7 5 5 5 4 3 3 2 3 2 3 3 3
1 2 2 2 1 1 2 1 1 1 1 2 2 3 3 4 6 8 6 6 6 7 7 6 7 8 10 11 11 10 9 7 7 6 5 5 5 4 3 3 2 2 4
1 2 2 2 2 2 2 2 1 2 2 2 2 3 4 4 6 8 8 5 5 6 7 6 5 6 8 7 8 9 9 10 9 7 6 6 6 6 5 4 4 4 4
1 2 2 2 2 2 2 2 2 2 2 2 3 3 4 5 6 7 7 4 4 5 6 6 6 6 7 7 6 5 5 5 6 5 5 5 5 5 5 5 4 3 2
2 2 3 2 2 2 2 2 2 2 2 2 3 3 4 5 6 7 6 3 3 4 5 5 6 6 8 8 6 5 3 3 3 4 4 4 5 5 4 3 2 2 3
3 3 3 3 2 3 3 3 2 2 2 3 3 3 4 4 6 6 6 3 3 3 3 4 6 7 8 8 6 6 5 3 2 2 1 1 1 2 3 4 4 3 2
3 3 3 3 3 3 3 3 2 2 2 2 3 4 4 5 6 6 5 3 3 3 3 3 4 7 8 8 6 5 5 4 3 3 2 1 1 0 1 2 3 4 4
3 3 4 3 3 3 2 3 2 2 2 2 3 4 3 3 5 5 5 4 3 2 3 3 4 6 6 6 5 4 5 3 3 2 2 2 1 1 1 1 1 2 3
3 3 3 4 3 3 2 2 2 2 2 2 2 3 3 2 3 5 5 4 3 2 2 3 3 3 3 3 4 4 3 3 3 2 2 2 1 2 1 0 1 1 1
3 3 3 3 3 3 3 2 2 2 2 3 3 3 3 2 2 2 2 2 2 2 1 1 1 2 1 2 3 2 1 2 3 2 2 1 1 1 1 0 0 0 1
3 3 3 3 3 3 3 3 3 3 4 3 3 3 3 3 4 4 2 2 1 1 1 1 1 1 2 1 1 1 1 1 1 2 2 1 1 1 1 1 1 0 0
3 3 3 2 2 2 2 3 4 4 5 5 5 4 3 4 5 4 3 3 2 2 2 2 1 1 1 1 1 1 1 1 1 2 1 1 1 1 1 1 1 1 1
3 3 3 3 3 3 3 3 3 4 4 4 4 5 4 4 4 3 2 1 1 1 2 1 1 1 1 1 1 1 1 1 1 1 1 1 1 1 1 1 1 1 1
3 4 3 3 3 3 3 3 3 3 3 3 4 4 4 4 4 2 1 1 1 1 1 1 1 1 1 1 1 1 1 1 1 1 1 1 1 1 1 1 1 1 1
3 3 2 2 3 3 3 3 2 3 3 3 3 3 3 3 2 1 1 1 1 1 1 1 1 1 1 1 1 1 1 1 1 0 1 1 1 1 1 2 1 2 1
3 4 4 3 2 2 2 2 2 2 3 3 3 2 2 1 1 1 1 1 1 1 1 1 1 1 1 1 1 1 1 1 1 1 1 1 1 1 2 2 2 1 1
3 3 4 3 2 3 2 2 2 2 2 2 3 3 3 1 1 1 1 1 1 2 2 2 2 2 2 2 1 1 2 1 1 1 1 1 1 1 1 1 1 1 1
3 2 2 2 3 3 2 2 2 2 2 2 2 2 3 1 1 1 1 1 1 1 1 2 2 2 2 2 2 2 2 2 2 2 1 1 1 1 1 1 1 1 1
3 3 3 3 2 3 3 2 2 2 2 2 1 1 1 1 1 1 1 1 1 1 1 2 2 2 2 2 2 2 2 2 2 3 2 2 2 2 2 1 1 1 1
3 3 3 3 2 2 2 2 2 2 1 1 1 1 1 1 1 1 1 1 1 1 1 2 2 2 2 2 2 2 2 3 3 3 3 3 2 2 2 1 1 1 1
2 3 3 3 3 2 2 2 2 2 1 1 1 1 1 1 1 1 1 1 1 1 1 1 2 2 3 2 2 2 2 2 2 2 3 3 2 2 2 2 1 1 1
2 3 3 2 2 2 2 2 2 2 1 1 1 1 1 1 1 0 0 1 1 1 1 1 1 1 2 2 2 2 3 2 2 3 3 3 2 2 2 2 2 1 1
Wind_Direction
264 257 262 265 264 250 233 233 230 227 221 222 226 220 218 219 217 212 214 213 215 217 214 213 216 210 209 213 210 213 219 217 242 264 261 257 241 250 266 258 255 255 260
261 257 257 262 264 251 249 243 230 226 222 225 226 222 222 222 219 213 215 215 214 215 216 213 215 211 212 212 210 216 222 220 225 250 263 251 249 243 252 262 269 262 262
263 257 264 267 261 261 257 248 228 223 227 231 234 232 232 230 227 222 216 217 217 218 214 213 214 209 216 216 214 219 224 225 220 229 249 256 264 254 272 289 289 280 275
274 263 268 271 262 263 263 254 237 225 228 236 238 242 242 240 235 226 220 218 218 219 217 215 214 213 215 213 217 218 218 218 218 221 236 245 254 251 228 263 293 289 283
303 289 278 278 280 285 290 282 263 245 254 248 250 254 250 244 238 230 221 218 215 216 219 221 220 220 222 219 220 216 211 217 218 221 232 238 238 228 235 235 263 285 283
321 306 307 307 300 294 293 286 275 275 272 272 268 265 259 255 254 251 237 217 215 214 219 223 227 224 225 228 230 227 219 216 214 219 229 229 235 234 230 234 239 274 279
301 299 312 310 309 307 303 300 288 282 281 287 288 283 272 266 264 263 259 239 221 218 216 217 226 229 223 218 225 227 231 232 227 220 222 230 226 217 207 221 230 250 257
308 305 308 305 303 307 297 294 293 274 274 287 286 285 284 281 278 273 268 252 232 222 219 214 214 220 218 210 207 219 229 233 230 225 218 222 222 209 206 209 212 239 271
335 323 316 305 297 295 290 292 285 282 292 295 293 291 288 290 287 283 280 247 229 227 224 218 214 213 221 211 199 202 218 229 228 218 221 220 225 221 194 164 181 208 259
322 314 311 302 291 287 288 290 287 281 289 297 301 298 291 291 293 290 291 245 225 228 228 223 226 220 218 216 199 192 205 216 185 162 156 163 189 210 213 195 193 206 235
320 320 321 319 303 292 296 293 288 293 300 298 298 300 297 295 298 295 291 262 225 222 228 230 225 224 222 222 214 202 203 192 176 170 172 170 155 167 216 206 205 206 217
323 325 324 321 313 310 307 305 301 294 296 297 298 304 303 298 301 293 293 281 261 227 226 227 227 233 222 214 210 190 174 166 158 162 177 192 192 213 234 211 216 232 227
322 320 316 315 314 309 302 303 302 287 274 281 282 288 305 313 308 304 302 291 280 266 238 231 231 226 202 176 167 162 155 153 158 174 194 210 206 200 198 226 25 3 332
322 314 308 310 314 315 304 291 274 265 264 272 271 273 283 299 304 298 293 284 286 279 240 193 158 124 112 136 149 148 157 173 173 183 192 190 165 161 182 200 216 34 23
317 311 314 314 306 310 304 291 280 263 257 258 257 257 257 267 282 294 283 269 250 222 154 119 110 115 122 119 112 119 128 138 147 147 156 167 170 168 214 181 180 170 215
318 315 312 309 303 298 301 309 306 290 292 285 279 274 272 274 287 292 287 282 270 189 138 143 153 151 164 158 157 149 148 165 160 156 165 181 186 183 202 200 199 200 214
294 298 302 302 302 300 296 297 303 312 309 302 297 291 278 281 287 286 284 229 203 165 139 145 161 178 185 175 173 179 194 184 164 162 167 178 181 182 191 215 220 227 239
296 294 291 286 286 287 283 282 282 290 302 305 307 296 287 278 281 275 231 131 111 98 154 167 179 189 198 193 183 171 167 157 147 164 173 187 188 188 197 208 207 224 252
309 299 290 285 283 282 282 285 287 288 288 290 295 300 297 282 273 255 200 174 177 187 192 191 190 192 194 189 175 162 158 161 166 192 207 205 196 188 198 203 205 227 239
307 302 302 299 296 291 289 287 289 288 286 283 282 284 290 273 226 237 215 196 187 190 194 194 188 189 189 181 172 164 156 161 172 206 227 217 198 185 190 197 203 209 244
302 305 308 307 297 290 288 280 275 276 276 281 282 286 294 269 244 239 218 197 202 203 199 195 193 194 195 187 182 180 180 191 199 214 226 219 192 186 187 189 198 200 242
304 306 306 300 300 297 294 291 286 285 283 280 286 302 312 302 254 231 209 208 210 211 203 194 198 203 202 198 192 189 191 201 206 210 218 206 196 185 171 172 175 197 222
309 309 312 312 308 310 316 310 300 293 291 287 290 302 307 272 247 225 222 215 199 196 182 177 189 201 198 203 201 190 194 205 212 211 203 191 187 183 171 173 187 209 230
312 311 313 317 319 317 314 311 310 310 313 309 289 278 275 267 246 235 235 225 211 190 189 189 189 191 186 197 206 202 201 207 211 206 189 178 178 172 166 170 194 216 222
322 319 318 315 312 310 310 309 309 310 313 313 292 272 271 266 253 224 208 192 186 183 180 174 175 181 186 194 200 198 192 200 212 192 175 170 165 165 162 164 173 174 162
322 319 318 316 313 309 306 306 308 309 309 312 298 273 261 262 267 250 199 169 159 158 157 161 168 184 201 200 193 189 191 192 187 176 164 159 156 162 158 155 154 145 134
Height
1437 1438 1438 1438 1439 1440 1441 1442 1443 1444 1445 1447 1449 1450 1451 1452 1454 1456 1457 1458 1460 1462 1463 1465 1466 1469 1470 1472 1473 1474 1474 1475 1473 1472 1472 1473 1472 1472 1471 1471 1471 1470 1468
1434 1434 1434 1435 1435 1436 1436 1437 1438 1439 1441 1442 1443 1444 1445 1447 1448 1450 1451 1453 1454 1456 1457 1459 1460 1463 1464 1466 1467 1467 1468 1469 1469 1467 1467 1467 1467 1467 1466 1465 1465 1464 1463
1431 1430 1431 1431 1431 1432 1432 1433 1434 1435 1436 1437 1438 1438 1439 1441 1442 1444 1445 1447 1449 1451 1452 1453 1454 1457 1458 1459 1460 1461 1462 1463 1463 1463 1462 1462 1462 1462 1461 1460 1460 1459 1458
1427 1427 1427 1427 1428 1428 1429 1429 1430 1431 1432 1433 1433 1434 1435 1436 1437 1439 1440 1442 1443 1445 1446 1447 1449 1451 1452 1453 1454 1455 1456 1457 1457 1458 1457 1456 1456 1456 1456 1456 1454 1454 1453
1424 1424 1423 1424 1425 1425 1426 1427 1427 1428 1428 1429 1429 1430 1431 1432 1433 1434 1435 1436 1438 1439 1440 1441 1443 1445 1446 1448 1449 1449 1450 1451 1451 1452 1451 1451 1451 1451 1451 1451 1450 1449 1448
1421 1421 1421 1421 1422 1422 1423 1424 1424 1424 1425 1426 1426 1426 1427 1428 1429 1430 1431 1431 1432 1433 1434 1435 1437 1439 1440 1442 1443 1444 1445 1445 1445 1446 1446 1446 1446 1446 1446 1446 1445 1444 1442
1419 1419 1419 1419 1419 1419 1420 1420 1420 1421 1422 1422 1422 1423 1423 1424 1424 1425 1426 1426 1426 1427 1428 1430 1431 1433 1434 1435 1436 1438 1438 1439 1440 1441 1440 1440 1441 1441 1441 1440 1440 1440 1438
1417 1417 1416 1416 1416 1417 1417 1417 1417 1418 1418 1418 1419 1419 1419 1419 1420 1420 1421 1421 1421 1422 1423 1424 1425 1427 1428 1429 1430 1431 1432 1433 1434 1435 1435 1435 1436 1436 1436 1436 1435 1435 1434
1415 1414 1414 1414 1414 1414 1414 1414 1414 1415 1415 1415 1415 1415 1415 1415 1415 1415 1416 1416 1416 1417 1418 1419 1420 1421 1423 1424 1425 1425 1426 1427 1428 1429 1430 1430 1431 1431 1431 1431 1431 1430 1429
1413 1413 1412 1412 1411 1411 1411 1411 1412 1412 1412 1412 1412 1412 1411 1411 1411 1411 1411 1411 1411 1412 1413 1414 1415 1416 1418 1419 1420 1420 1421 1422 1423 1424 1424 1425 1426 1426 1426 1426 1426 1426 1424
1412 1411 1410 1410 1409 1409 1409 1409 1409 1409 1409 1408 1408 1407 1407 1407 1406 1407 1407 1407 1407 1408 1408 1409 1410 1412 1413 1414 1415 1416 1416 1418 1418 1419 1420 1420 1421 1421 1421 1421 1422 1422 1421
1410 1409 1408 1408 1407 1407 1406 1406 1406 1406 1405 1405 1404 1404 1403 1403 1403 1403 1403 1404 1404 1404 1405 1406 1407 1408 1408 1409 1411 1411 1413 1414 1414 1415 1415 1416 1416 1417 1417 1417 1417 1417 1417
1409 1408 1407 1406 1405 1405 1404 1403 1403 1403 1403 1402 1401 1400 1400 1400 1400 1400 1400 1401 1401 1401 1402 1402 1403 1404 1404 1405 1407 1408 1409 1410 1410 1411 1411 1412 1413 1413 1413 1413 1413 1413 1414
1407 1406 1405 1404 1403 1403 1402 1402 1401 1401 1400 1399 1399 1398 1397 1397 1397 1397 1397 1398 1398 1398 1399 1399 1400 1401 1401 1402 1404 1405 1405 1406 1407 1408 1408 1409 1409 1409 1409 1409 1409 1410 1410
1406 1404 1403 1402 1401 1401 1400 1399 1399 1398 1398 1398 1397 1396 1395 1395 1395 1396 1396 1396 1396 1396 1396 1397 1397 1398 1398 1399 1400 1402 1402 1403 1404 1404 1405 1405 1406 1406 1406 1407 1407 1407 1407
1404 1403 1401 1400 1399 1399 1398 1397 1397 1397 1396 1396 1395 1394 1393 1394 1393 1393 1394 1394 1394 1394 1395 1394 1395 1396 1396 1396 1398 1399 1400 1401 1401 1402 1402 1402 1403 1403 1404 1405 1405 1404 1404
1402 1401 1400 1399 1397 1396 1396 1395 1394 1394 1394 1393 1392 1392 1391 1391 1391 1391 1391 1392 1392 1392 1392 1392 1393 1393 1394 1395 1396 1397 1398 1399 1399 1400 1400 1400 1401 1401 1402 1402 1402 1402 1401
1401 1399 1398 1397 1396 1395 1394 1393 1393 1391 1390 1389 1390 1389 1389 1388 1389 1389 1389 1389 1389 1390 1390 1390 1391 1392 1393 1394 1395 1395 1396 1397 1397 1398 1398 1398 1399 1399 1399 1400 1400 1400 1399
1398 1397 1396 1395 1394 1393 1392 1391 1390 1390 1389 1388 1387 1387 1387 1386 1387 1387 1387 1387 1387 1387 1388 1389 1389 1390 1391 1392 1393 1394 1394 1395 1395 1396 1396 1396 1397 1397 1397 1398 1398 1398 1398
1396 1395 1394 1393 1392 1391 1390 1389 1388 1388 1387 1386 1385 1384 1384 1384 1384 1384 1384 1385 1385 1385 1386 1387 1388 1389 1389 1390 1391 1392 1392 1393 1393 1394 1395 1395 1395 1395 1395 1396 1396 1396 1396
1394 1393 1392 1391 1390 1389 1388 1387 1386 1385 1384 1383 1383 1383 1383 1382 1382 1382 1382 1382 1383 1384 1384 1385 1386 1387 1388 1389 1389 1390 1391 1391 1391 1392 1393 1393 1393 1393 1394 1394 1394 1394 1393
1392 1391 1390 1388 1387 1386 1385 1385 1384 1383 1382 1382 1381 1381 1381 1380 1380 1380 1380 1381 1381 1382 1383 1384 1384 1385 1386 1387 1388 1388 1389 1389 1390 1390 1391 1391 1391 1392 1392 1392 1392 1392 1392
1390 1389 1388 1387 1386 1384 1384 1383 1382 1382 1381 1380 1380 1379 1379 1379 1379 1379 1379 1379 1380 1381 1381 1382 1383 1384 1385 1386 1387 1387 1388 1388 1389 1389 1389 1390 1390 1390 1390 1390 1391 1391 1390
1389 1388 1386 1385 1384 1383 1382 1381 1380 1379 1379 1378 1378 1377 1377 1377 1377 1377 1377 1378 1378 1379 1380 1381 1382 1382 1383 1384 1385 1386 1386 1387 1387 1388 1388 1388 1388 1389 1389 1389 1389 1389 1389
1387 1386 1385 1383 1382 1381 1380 1379 1378 1377 1377 1376 1376 1376 1376 1376 1376 1376 1376 1377 1377 1378 1378 1379 1380 1381 1382 1383 1383 1384 1384 1385 1386 1386 1387 1387 1387 1387 1388 1388 1388 1388 1388
1386 1384 1383 1382 1380 1379 1378 1377 1376 1376 1375 1375 1374 1374 1374 1374 1375 1375 1375 1376 1376 1377 1377 1378 1379 1380 1380 1381 1381 1382 1383 1384 1384 1385 1385 1385 1386 1386 1387 1387 1387 1387 1387